Battle Mountain, Nevada, United States (89820)
Lat: 40.64N, Lon: 116.93W
Wx Zone: NVZ036
Local Info
Past Weather Observations for Sunday, October 26, 2014

NOTE: This archive is for the closest National Weather Service station to Battle Mountain. Information may differ from the station used for current weather conditions.

Click here for Long-term Archive

Time Weather Temperature Dewpoint Humidity Pressure Winds Precip Visibility
23:56
Clear
27°F / -3°C 18°F / -8°C 69% 30.15 in
(1021 mb)
SE 4.6 mph
(SE 7 kph)
- 10SM
22:56
Clear
30°F / -1°C 21°F / -6°C 69% 30.15 in
(1021 mb)
Calm - 10SM
21:56
Clear
30°F / -1°C 21°F / -6°C 69% 30.15 in
(1021 mb)
Calm - 10SM
20:56
Clear
36°F / 2°C 21°F / -6°C 56% 30.15 in
(1021 mb)
W 4.6 mph
(W 7 kph)
- 10SM
19:56
Clear
36°F / 2°C 21°F / -6°C 56% 30.12 in
(1020 mb)
Calm - 10SM
18:56
Clear
37°F / 3°C 21°F / -6°C 52% 30.12 in
(1020 mb)
SW 6.9 mph
(SW 11 kph)
- 10SM
17:56
Clear
43°F / 6°C 21°F / -6°C 42% 30.09 in
(1019 mb)
Calm - 10SM
16:56
Partly Cloudy
48°F / 9°C 21°F / -6°C 34% 30.09 in
(1019 mb)
WNW 6.9 mph
(WNW 11 kph)
- 10SM
15:56
Clear
52°F / 11°C 23°F / -5°C 32% 30.09 in
(1019 mb)
NW 9.2 mph
(NW 15 kph)
- 10SM
14:56
Mostly Cloudy
55°F / 13°C 21°F / -6°C 26% 30.09 in
(1019 mb)
NW 4.6 mph
(NW 7 kph)
- 10SM
13:56
Partly Cloudy
54°F / 12°C 27°F / -3°C 35% 30.09 in
(1019 mb)
SSW 10.4 mph
(SSW 17 kph)
- 10SM
12:56
Clear
54°F / 12°C 25°F / -4°C 33% 30.09 in
(1019 mb)
W 11.5 mph
(W 19 kph)
- 10SM
11:56
Clear
54°F / 12°C 25°F / -4°C 33% 30.12 in
(1020 mb)
SSW 15 mph
(SSW 24 kph)
- 10SM
10:56
Clear
52°F / 11°C 30°F / -1°C 44% 30.15 in
(1021 mb)
NW 13.8 mph
(NW 22 kph)
- 10SM
09:56
Partly Cloudy
48°F / 9°C 34°F / 1°C 58% 30.15 in
(1021 mb)
W 10.4 mph
(W 17 kph)
- 10SM
08:56
Clear
48°F / 9°C 36°F / 2°C 62% 30.15 in
(1021 mb)
SSW 12.7 mph
(SSW 20 kph)
- 10SM
07:56
Mostly Cloudy
46°F / 8°C 36°F / 2°C 66% 30.15 in
(1021 mb)
SSW 9.2 mph
(SSW 15 kph)
0.00 in
(0.00 mm)
10SM
06:56
Overcast
41°F / 5°C 37°F / 3°C 87% 30.12 in
(1020 mb)
S 9.2 mph
(S 15 kph)
0.00 in
(0.00 mm)
10SM
05:56
Mostly Cloudy
43°F / 6°C 36°F / 2°C 76% 30.12 in
(1020 mb)
SSE 5.8 mph
(SSE 9 kph)
0.04 in
(1.02 mm)
10SM
04:56
Overcast
Light Rain
43°F / 6°C 37°F / 3°C 81% 30.12 in
(1020 mb)
SW 10.4 mph
(SW 17 kph)
0.00 in
(0.00 mm)
10SM
03:56
Overcast
43°F / 6°C 36°F / 2°C 76% 30.12 in
(1020 mb)
SSW 12.7 mph
(SSW 20 kph)
- 10SM
01:56
Overcast
45°F / 7°C 25°F / -4°C 46% 30.06 in
(1018 mb)
S 6.9 mph
(S 11 kph)
- 10SM
00:56
Overcast
46°F / 8°C 27°F / -3°C 46% 30.06 in
(1018 mb)
SW 5.8 mph
(SW 9 kph)
- 10SM
Time Weather Temperature Dewpoint Humidity Pressure Winds Precip Visibility


Weather for websites

WeatherForYou.com, LLC is not responsible for any damages or problems caused by this service. Current weather conditions are obtained from the closest station including government and personal stations which may have varying degrees of accuracy. Weather forecasts are derived from the NOAA NDFD. Like all things, this site belongs to Jesus Christ... He just trusts me to maintain it. If you have any questions or comments email webmaster@weatherforyou.com

Copyright © 2014, WeatherForYou.com LLC. All rights reserved.